{"data":{"norad_id":47901,"intl_designator":"2021-021AT","name":"STARLINK-2361","alt_names":[],"object_type":"PAYLOAD","status":"ACTIVE","operator":null,"country":"US","launch_date":"2021-03-14","launch_site_code":"AFETR","launch_vehicle":null,"mission":null,"orbit_class":"UNKNOWN","rcs_meters":null,"size_class":null,"mass_kg":null,"dimensions":null,"purposes":["comms"],"wikipedia_slug":null,"has_3d_model":false,"image_url":null,"decayed_at":null,"tle_current":{"epoch":"2026-05-25T01:03:04.655232Z","epoch_age_seconds":81968,"freshness":"FRESH","line1":"1 47901U 21021AT  26145.04380388  .00042850  00000+0  11858-2 0  9992","line2":"2 47901  53.1568 259.0925 0003179 301.0438  59.0253 15.36599655288132","mean_motion":15.36599655,"eccentricity":0.0003179,"inclination_deg":53.1568,"raan_deg":259.0925,"arg_perigee_deg":301.0438,"mean_anomaly_deg":59.0253,"bstar":0.0011858,"rev_number":28813,"period_min":93.713414246471,"perigee_km":454.00057515942,"apogee_km":458.34582958609,"semimajor_km":6834.3102023728,"source":"CELESTRAK","updated_at":"2026-05-25T13:38:16.636013Z"}}}